Location: Clairmont
(55.2667°N, 118.8000°W)
Time: 09:15:11
(UTC+00:00)

N. Korean satellite - Pass Details

Date: 05 November 2020
Orbit: 453 x 503 km, 97.2° (Epoch: 03 December)

Event Time Altitude Azimuth Distance (km) Brightness Sun altitude
Rises 12:24:30 0° 29° (NNE) 2,482 10.6 -23.6°
Reaches altitude 10° 12:27:23 10° 56° (NE) 1,603 10.0 -23.2°
Maximum altitude 12:29:13 14° 88° (E) 1,388 9.9 -22.9°
Drops below altitude 10° 12:31:02 10° 121° (ESE) 1,601 9.9 -22.6°
Sets 12:33:54 0° 148° (SSE) 2,475 10.5 -22.2°
